Weather observations for the past three days for
Natchez, Hardy-Anders Field Natchez-Adams County Airport
Imperial (Metric)
Date Time (cdt) Wind (mph) Vis. (mi.) Weather Sky Cond. Temperature (ºF) Relative Humidity Wind Chill (°F) Heat Index (°F) Pressure Precipitation (in)
Air Dwpt 6 hour altimeter (in) sea level (mb) 1 hr 3 hr 6 hr
Max. Min.
22 22:56 Calm 10.00 Fair CLR 77 75 94% 78 30.02 1016.4
22 21:56 Calm 10.00 Fair CLR 79 75 88% 83 30.01 1015.9
22 20:56 Calm 10.00 Fair CLR 81 75.9 85% 87 30 1015.5
22 19:56 Calm 10.00 Fair CLR 84 73.9 72% 91 29.99 1015.2
22 18:56 NW 5 10.00 Fair CLR 89.1 73 91.9 88 59% 97 29.99 1015.2
22 17:56 N 5 10.00 Partly Cloudy SCT060 91 70 50% 97 29.99 1015.2
22 16:56 NE 5 5.00 Fair with Haze CLR 91 69.1 49% 96 30 1015.6
22 15:56 N 6 10.00 Fair CLR 91 71.1 52% 98 30.01 1016.1
22 14:56 NE 8 9.00 Fair CLR 91 71.1 52% 98 30.03 1016.7
22 13:56 Vrbl 5 10.00 Partly Cloudy SCT046 89.1 71.1 55% 95 30.05 1017.4
22 12:56 Calm 10.00 Fair CLR 89.1 70 89.1 73 53% 94 30.07 1018.0
22 11:56 Calm 10.00 Mostly Cloudy BKN042 87.1 71.1 59% 93 30.09 1018.6
22 10:56 NE 3 10.00 Fair CLR 87.1 72 61% 94 30.09 1018.8
22 09:56 Calm 8.00 Fair CLR 84.9 73.9 70% 92 30.1 1019.1
22 08:56 Calm 10.00 Fair CLR 82 73.9 77% 88 30.11 1019.5
22 07:56 Calm 10.00 Fair CLR 78.1 73.9 87% 81 30.11 1019.5
22 06:56 Calm 10.00 Fair CLR 73 71.1 75 71.1 94% 30.12 1019.6
22 05:56 Calm 6.00 Fog/Mist CLR 71.1 70 96% 30.11 1019.3
22 04:56 Calm 10.00 Fair CLR 72 71.1 97% 30.1 1018.9
22 03:56 Calm 10.00 Fair CLR 73 71.1 94% 30.09 1018.8
22 02:56 S 3 10.00 Fair CLR 75 72 90% 74 30.1 1018.9
22 01:56 SE 3 10.00 Fair CLR 75 72 90% 74 30.1 1019.0
22 00:56 Calm 10.00 Fair CLR 75 72 86 75 90% 74 30.11 1019.3
21 23:56 Calm 10.00 Fair CLR 77 73 88% 78 30.11 1019.4
21 22:56 Calm 10.00 Fair CLR 77 73.9 90% 78 30.1 1019.1
21 21:56 Calm 10.00 Fair CLR 78.1 75 90% 81 30.09 1018.9
21 20:56 Calm 10.00 A Few Clouds FEW055 80.1 75.9 87% 85 30.08 1018.3
21 19:56 Calm 7.00 Fair CLR 82.9 77 82% 92 30.08 1018.4
21 18:56 NE 3 10.00 A Few Clouds FEW070 86 75.9 91 84.9 72% 96 30.08 1018.3
21 17:56 N 8 10.00 Mostly Cloudy BKN055 88 73.9 63% 97 30.07 1018.1
21 16:56 N 6 10.00 Fair CLR 90 73.9 59% 99 30.09 1018.6
21 15:56 NW 7 10.00 Partly Cloudy FEW046 SCT070 90 75 62% 100 30.1 1019.2
21 14:56 N 3 10.00 Mostly Cloudy SCT045 BKN050 89.1 72 57% 96 30.13 1020.0
21 13:56 Calm 10.00 Mostly Cloudy SCT043 BKN055 91 72 54% 99 30.14 1020.5
21 12:56 E 6 6.00 Partly Cloudy with Haze FEW039 SCT070 88 72 89.1 72 59% 95 30.16 1021.2
21 11:56 SE 5 10.00 Mostly Cloudy BKN039 88 72 59% 95 30.18 1021.7
21 10:56 NE 6 10.00 Fair CLR 87.1 71.1 59% 93 30.19 1022.1
21 09:56 Vrbl 6 10.00 Fair CLR 84.9 72 65% 91 30.2 1022.3
21 08:56 Vrbl 6 10.00 Fair CLR 82 73 74% 87 30.2 1022.4
21 07:56 E 3 10.00 Fair CLR 78.1 72 82% 80 30.19 1022.1
21 06:56 Calm 10.00 Fair CLR 72 70 75 70 94% 30.18 1021.6
21 05:56 Calm 10.00 Fair CLR 70 69.1 97% 30.16 1021.1
21 04:56 Calm 10.00 Fair CLR 73 70 90% 30.16 1020.9
21 03:56 E 5 10.00 Fair CLR 75 70 84% 75 30.15 1020.7
21 02:56 SE 6 10.00 Fair CLR 75 69.1 82% 75 30.16 1021.0
21 01:56 E 7 10.00 Fair CLR 75 69.1 82% 75 30.17 1021.3
21 00:56 E 7 10.00 Fair CLR 75 68 86 73.9 79% 76 30.17 1021.6
20 23:56 E 8 10.00 Fair CLR 75 68 79% 76 30.17 1021.4
20 22:56 NE 5 10.00 Fair CLR 75 69.1 82% 75 30.17 1021.3
20 21:56 Calm 10.00 Fair CLR 75.9 70 82% 77 30.16 1021.1
20 20:56 NE 5 10.00 Fair CLR 79 69.1 72% 82 30.15 1020.7
20 19:56 NE 6 10.00 Fair CLR 82 70 67% 86 30.14 1020.4
20 18:56 NE 9 10.00 A Few Clouds FEW002 86 70 89.1 86 59% 91 30.13 1020.2
20 17:56 NE 9 6.00 Fair with Haze CLR 87.1 69.1 55% 91 30.13 1020.2
20 16:56 NE 8 10.00 Fair CLR 88 72 59% 95 30.15 1020.7
20 15:56 NE 7 10.00 A Few Clouds FEW048 88 70 55% 93 30.15 1020.9
20 14:56 NE 12 10.00 A Few Clouds FEW048 88 71.1 57% 94 30.16 1021.2
20 13:56 E 9 10.00 A Few Clouds FEW041 89.1 73 59% 97 30.17 1021.6
20 12:56 E 8 10.00 Fair CLR 87.1 71.1 87.1 73 59% 93 30.19 1022.0
20 11:56 E 12 10.00 Fair CLR 87.1 72 61% 94 30.19 1022.2
20 10:56 E 6 10.00 Fair CLR 84.9 72 65% 91 30.19 1022.3
20 09:56 Vrbl 7 10.00 Fair CLR 82.9 72 70% 88 30.19 1022.1
20 08:56 E 9 10.00 Fair CLR 80.1 70 71% 83 30.18 1021.6
20 07:56 E 8 10.00 A Few Clouds FEW065 75 70 84% 75 30.16 1021.1
20 06:56 NE 5 10.00 Fair CLR 73 71.1 75 72 94% 30.15 1020.5
20 05:56 NE 5 10.00 Fair CLR 72 71.1 97% 30.13 1020.2
20 04:56 NE 5 10.00 Fair CLR 72 71.1 97% 30.12 1019.7
20 03:56 NE 5 10.00 Fair CLR 73 72 96% 30.11 1019.3
20 02:56 NE 5 10.00 Fair CLR 73.9 72 94% 30.11 1019.4
20 01:56 E 5 10.00 A Few Clouds FEW050 75 72 90% 74 30.11 1019.5
20 00:56 E 3 10.00 Mostly Cloudy BKN055 75 73 84.9 75 94% 73 30.12 1019.7 0.02
19 23:56 E 7 10.00 Fair CLR 75 73 94% 73 30.12 1019.5
Date Time (cdt) Wind (mph) Vis. (mi.) Weather Sky Cond. Air Dwpt Max. Min. Relative Humidity Wind Chill (°F) Heat Index (°F) altimeter (in) sea level (mb) 1 hr 3 hr 6 hr
6 hour
Temperature (ºF) Pressure Precipitation (in)